Theta_e
338 345 350 349 347 344 343 343 345 346 346 344 343 340 340 341 343 345 347 346 344 340 344 345 346 346 346 346 345 344 344 344 345 345 345 345 345 345 344 344 343 341 344
342 345 348 349 346 344 342 342 344 347 346 344 341 339 339 341 342 341 345 345 343 339 340 344 343 343 342 342 342 342 342 341 342 343 343 342 343 343 343 343 343 342 343
342 343 347 347 346 344 342 343 344 346 346 344 342 338 338 339 341 341 342 343 342 338 338 340 341 341 340 339 340 340 340 339 340 341 340 339 340 342 342 341 342 341 340
342 343 346 344 346 345 343 343 344 345 346 344 342 338 338 339 339 340 341 341 339 337 337 337 337 338 338 337 338 339 338 338 339 338 337 337 338 341 341 339 339 338 337
341 343 346 344 346 345 344 343 344 345 345 344 342 339 337 338 338 337 339 341 339 338 336 337 335 336 337 337 337 337 337 337 337 335 336 337 336 337 338 336 335 335 336
342 344 343 344 346 345 344 344 344 344 344 345 343 339 337 337 337 336 338 340 339 338 339 338 338 337 338 337 336 335 335 337 335 335 335 335 334 336 336 334 333 333 334
342 345 345 344 345 345 344 343 343 344 344 344 343 338 336 336 336 334 337 340 339 338 337 337 338 337 336 335 334 333 332 333 331 332 333 332 333 334 334 333 332 332 332
341 344 344 337 340 342 343 343 343 344 344 344 342 339 336 335 336 334 336 337 335 333 334 336 337 336 335 334 332 331 330 330 328 329 330 331 333 333 333 331 331 330 330
342 343 343 343 339 336 338 339 341 342 344 343 340 338 336 335 336 336 335 335 334 335 336 333 333 334 333 332 330 328 328 327 327 329 329 330 332 332 331 330 329 329 329
339 342 342 343 341 340 340 333 335 338 339 338 335 332 331 331 332 332 330 333 334 335 334 334 333 332 330 329 327 326 326 326 327 327 327 328 329 329 329 328 327 327 327
336 338 339 341 341 340 339 335 332 332 332 331 329 326 327 331 331 330 328 332 333 332 332 332 331 328 326 325 323 324 325 325 326 324 325 328 328 328 328 327 326 326 325
332 334 338 339 340 340 337 338 338 337 338 338 336 333 331 329 330 329 325 326 329 328 328 327 325 321 325 326 324 324 325 326 325 324 324 327 326 326 326 325 324 324 323
332 334 337 339 339 339 337 337 337 337 336 337 336 334 330 327 330 330 329 326 326 321 325 324 323 325 325 325 324 324 325 324 323 322 323 325 325 325 325 323 323 323 321
332 332 336 338 338 338 338 337 336 335 335 334 334 333 328 326 328 328 328 327 326 324 322 323 323 323 323 323 323 323 323 322 322 322 321 322 324 323 324 323 322 321 321
330 332 334 337 337 337 337 336 336 334 334 333 332 331 328 325 325 327 327 326 324 321 321 321 321 321 320 320 321 320 320 321 321 321 321 317 322 322 322 322 321 321 321
331 331 333 334 337 337 335 334 335 334 333 332 331 330 328 326 325 326 325 323 321 320 321 320 320 320 318 318 316 317 317 318 319 319 320 320 319 322 321 321 321 320 321
332 333 332 333 335 336 335 334 333 335 332 331 330 330 328 326 324 324 324 321 319 318 318 317 317 317 316 315 313 312 313 314 316 317 319 319 319 315 321 320 320 320 320
334 331 332 332 333 335 335 335 334 334 333 331 330 329 327 325 324 323 322 321 318 316 316 316 315 315 314 313 311 310 310 310 310 312 314 316 317 316 316 318 319 319 318
333 335 334 332 333 333 335 335 334 333 334 332 330 329 327 325 323 322 321 321 316 313 311 310 310 313 309 308 307 308 305 306 306 306 309 309 311 313 316 307 307 313 317
328 332 335 335 332 333 334 334 333 331 333 334 330 328 326 325 323 320 320 317 313 312 311 309 310 308 309 305 302 297 296 296 298 302 304 305 307 307 309 310 314 313 310
318 326 330 333 333 332 331 329 328 326 328 330 332 329 327 323 322 320 318 314 309 307 306 306 304 304 299 301 298 301 300 299 297 295 301 305 305 304 303 305 307 310 311
307 315 323 329 333 331 331 331 330 329 329 330 332 330 327 322 322 320 318 312 310 307 304 303 302 299 304 302 303 303 300 304 298 300 301 300 301 303 302 300 298 303 309
304 307 315 322 328 332 331 331 329 328 326 327 326 329 327 322 320 320 318 317 309 308 304 303 302 302 300 297 304 308 299 302 303 302 299 297 296 301 298 295 293 295 296
309 306 306 316 322 329 331 329 328 326 324 326 328 326 327 324 321 321 321 315 311 308 307 306 306 307 306 302 298 300 299 300 297 296 296 297 298 296 295 294 292 292 293
313 310 304 311 319 325 330 328 327 327 328 328 328 326 324 324 323 321 320 318 314 311 310 308 305 303 304 303 299 296 295 296 295 294 302 293 293 294 293 292 292 293 295
311 317 314 307 315 323 326 327 326 326 326 325 325 325 324 323 322 322 320 319 317 314 312 311 305 304 304 303 304 298 297 295 293 291 293 302 297 294 288 289 291 290 295
Wind_Speed
10 13 9 12 12 11 11 11 11 11 15 16 15 15 14 14 16 15 15 18 19 18 17 18 19 19 21 22 22 22 22 22 22 23 22 22 23 22 20 16 19 20 20
14 14 10 12 12 11 11 11 9 9 15 15 14 15 14 14 15 16 17 17 18 18 17 18 17 18 18 19 20 20 20 19 17 14 17 18 19 21 21 19 19 21 24
14 14 13 12 12 11 12 11 8 9 15 15 15 14 14 14 15 16 16 17 17 17 18 18 18 18 18 17 17 19 18 16 15 14 13 14 16 20 20 19 20 22 22
14 13 13 11 13 12 12 10 8 10 12 15 15 15 13 13 14 15 16 16 17 17 17 17 17 17 17 17 17 18 18 18 12 10 11 14 16 22 23 23 22 21 21
13 11 13 12 13 12 12 10 9 9 9 15 15 14 13 13 15 13 14 15 15 16 17 16 17 18 18 19 19 19 20 15 9 12 13 14 13 18 21 21 21 22 19
13 11 13 12 13 13 12 10 9 9 9 14 14 15 13 13 12 11 11 14 14 17 16 16 16 17 19 20 19 19 17 10 10 14 14 14 15 18 19 20 20 20 19
13 11 13 10 12 13 12 11 9 8 8 13 14 16 13 12 12 11 10 14 16 17 15 15 15 16 18 18 17 16 14 10 12 11 13 11 14 18 18 18 18 19 19
12 12 12 10 10 11 11 10 9 8 7 14 15 15 14 12 11 11 9 12 13 13 14 15 16 16 16 16 15 14 10 7 10 10 10 10 12 16 17 17 18 18 18
12 12 11 11 11 9 10 9 9 8 9 12 14 14 13 10 10 11 8 11 13 13 15 13 14 15 15 14 14 13 11 9 10 8 10 9 15 17 17 17 16 16 18
11 12 11 11 11 11 11 8 8 9 9 10 11 12 11 9 9 9 8 10 12 14 14 14 14 14 14 13 13 11 8 7 10 9 9 9 14 15 16 16 15 15 16
9 11 10 11 11 10 10 9 9 9 8 9 10 11 9 8 9 10 10 10 12 13 13 13 14 14 14 13 11 7 4 6 7 7 7 10 13 15 15 15 14 15 15
12 12 11 10 11 10 8 11 9 9 8 7 8 8 5 7 6 7 9 10 11 11 11 11 10 7 5 7 6 4 5 6 6 7 7 9 12 13 13 14 14 14 13
13 11 12 11 10 11 9 8 6 5 6 6 9 7 7 6 8 6 7 5 6 7 5 6 7 4 5 5 4 5 7 6 5 5 8 10 12 13 12 13 11 12 11
14 14 13 12 10 11 8 8 7 7 7 6 8 9 7 5 7 7 5 7 6 4 5 5 4 5 6 6 6 6 7 6 5 5 6 6 10 12 12 12 10 10 11
16 14 14 13 12 10 9 8 8 8 7 8 8 9 7 7 7 7 6 6 5 5 5 5 5 5 6 6 5 5 5 6 6 4 5 6 7 10 11 11 10 9 10
16 16 15 14 12 12 11 10 9 8 8 8 8 9 10 7 7 7 7 6 5 5 4 4 5 5 5 5 5 4 4 5 5 5 4 5 7 8 9 10 11 11 11
15 14 16 16 13 13 14 11 8 9 9 9 8 11 12 10 9 9 7 7 6 5 6 5 5 5 5 4 5 4 3 3 3 4 4 5 5 6 8 9 10 12 12
15 17 16 13 14 14 12 10 8 8 10 9 10 10 12 12 11 10 8 8 7 6 6 6 6 6 5 5 4 4 3 3 2 2 3 4 4 4 5 3 9 10 10
16 17 18 17 16 15 14 10 10 11 11 10 9 9 14 13 12 10 8 8 9 7 6 6 6 6 6 5 4 4 1 2 4 3 4 5 4 5 4 2 2 2 11
16 17 17 16 18 16 11 9 8 7 10 9 9 10 13 11 14 10 9 9 9 8 7 7 8 5 5 6 5 2 2 2 3 5 6 5 6 6 5 5 6 7 4
15 17 19 19 19 13 10 9 9 9 8 8 10 13 13 11 13 12 8 10 9 9 9 9 6 9 3 7 4 4 5 7 7 5 7 8 8 7 6 6 4 5 6
12 16 18 19 18 15 11 10 8 9 7 9 10 11 13 13 12 12 12 10 11 8 10 11 10 4 7 10 5 3 4 7 9 11 10 9 11 8 9 9 7 8 8
7 10 13 16 18 17 15 9 5 3 2 6 8 9 12 12 12 14 14 12 11 10 10 12 13 13 10 8 11 5 4 8 4 7 14 11 11 11 9 7 6 6 5
5 5 10 13 15 15 17 12 12 10 9 8 8 7 10 13 13 14 16 13 12 10 11 13 12 13 9 11 5 12 4 3 5 4 6 13 13 14 13 8 7 7 7
6 4 3 8 11 13 14 15 10 11 9 6 7 9 10 10 13 14 14 14 13 11 13 13 13 15 12 9 9 3 7 7 6 3 5 5 9 12 11 12 10 9 12
8 8 6 5 7 10 13 15 14 12 11 6 7 7 7 7 8 11 13 12 13 13 14 14 14 15 14 12 9 8 9 6 8 8 7 9 8 4 7 7 12 10 11
Wind_Direction
157 142 150 131 120 114 111 108 105 96 107 99 91 90 87 83 79 72 73 83 77 76 72 77 75 75 77 77 75 72 71 68 67 71 71 75 79 77 72 68 78 77 75
148 146 139 126 123 116 118 116 111 104 111 101 96 90 89 87 82 80 83 85 83 81 80 77 77 77 77 78 75 75 71 65 59 64 83 78 73 72 71 69 76 79 74
149 143 144 126 124 123 124 122 115 110 114 104 97 95 93 90 83 82 87 82 83 84 84 83 82 79 74 71 72 76 75 70 69 67 66 75 74 77 79 76 77 77 75
148 149 143 130 129 130 126 123 123 118 116 112 109 98 98 94 92 86 87 84 84 87 86 87 84 85 82 87 79 74 73 68 61 86 85 81 77 78 75 71 72 76 78
152 150 128 135 135 132 127 125 118 116 119 122 109 103 101 98 94 92 88 96 90 92 93 89 92 91 92 89 85 82 78 70 63 81 81 81 83 79 76 74 73 68 69
151 154 137 138 137 132 127 125 121 123 128 127 115 109 107 107 102 96 90 100 103 98 91 95 98 98 96 90 86 81 76 70 77 81 80 73 76 88 84 80 77 74 75
157 150 152 140 137 133 130 129 127 131 126 130 119 113 110 112 110 103 89 97 94 92 94 92 93 100 100 98 89 81 70 49 81 80 82 75 78 80 82 81 80 81 81
156 157 148 142 135 133 132 131 127 124 126 129 118 122 120 121 115 113 96 97 94 100 102 95 86 89 94 96 92 81 53 59 78 75 76 81 85 85 81 82 83 84 85
159 164 159 158 147 132 131 128 124 119 117 121 122 117 117 117 110 106 99 100 100 101 99 102 99 92 90 90 88 79 58 34 75 75 77 76 84 91 91 90 92 93 90
170 169 166 164 165 158 151 132 127 123 109 108 110 105 106 103 96 102 110 98 102 101 94 96 99 100 96 93 86 78 80 77 84 87 84 80 84 87 90 92 96 94 94
178 179 175 173 171 164 157 145 135 115 105 109 115 111 139 136 138 152 87 104 103 103 105 103 106 108 100 86 77 71 77 83 87 82 89 82 94 95 95 95 94 96 97
180 186 179 181 177 169 163 162 163 150 162 159 159 156 143 144 142 127 114 83 89 90 97 101 113 114 149 123 115 122 93 98 88 85 85 97 102 101 103 101 100 100 100
186 187 189 185 184 181 171 172 169 170 167 166 166 161 152 149 152 152 139 137 128 126 138 140 151 145 132 131 124 114 110 107 102 89 91 92 99 105 102 102 108 108 107
189 194 191 188 184 194 184 185 179 177 176 173 173 167 163 165 170 163 162 157 163 171 153 158 142 131 127 123 128 124 121 119 118 108 99 98 119 115 112 119 113 113 119
202 195 196 194 188 189 193 192 187 187 187 179 174 175 180 176 176 171 166 170 168 166 166 154 143 140 132 129 132 133 136 129 134 125 111 46 110 129 130 128 129 129 127
209 205 199 199 195 189 192 192 194 191 185 182 183 181 188 185 180 177 171 172 171 174 163 158 155 150 142 143 129 125 130 133 141 140 138 112 43 137 147 149 154 144 145
211 207 202 201 197 194 195 193 193 196 192 190 191 187 186 187 185 182 177 176 170 165 158 150 146 148 151 149 133 119 118 112 137 153 162 164 146 55 169 169 172 168 161
210 208 205 200 201 199 198 196 197 199 203 202 191 188 190 190 188 188 184 183 170 168 174 171 167 163 164 167 162 156 156 150 148 205 192 189 181 188 93 192 187 186 183
216 213 206 204 201 200 203 199 202 209 210 204 199 196 190 190 191 193 194 184 175 172 173 172 174 179 169 168 176 171 179 208 191 209 206 206 201 212 204 144 322 256 205
221 221 218 206 208 199 198 200 199 201 214 209 207 202 194 193 192 195 197 182 180 180 179 177 178 180 182 182 162 172 263 234 275 237 222 220 211 219 220 242 210 203 266
229 222 219 213 209 198 195 195 195 199 204 204 210 207 198 193 193 192 187 185 180 184 177 171 165 184 178 159 156 208 229 234 234 230 237 228 226 224 232 217 245 227 221
231 226 224 221 213 207 200 199 205 198 206 206 211 206 203 198 192 193 190 189 191 185 178 179 178 170 191 190 181 180 222 217 228 223 219 226 225 223 226 229 232 235 221
244 233 229 225 219 208 209 197 198 176 134 200 202 203 207 198 196 199 200 199 190 187 195 193 196 188 190 191 216 203 180 224 170 195 225 222 227 222 222 224 229 243 240
325 269 237 226 221 217 206 201 197 204 202 210 207 203 207 203 199 206 209 199 193 195 202 207 206 209 192 207 209 244 248 318 216 209 216 223 224 230 225 213 221 233 234
11 10 222 218 214 211 210 213 206 214 223 206 204 188 200 203 207 206 206 205 203 203 212 211 208 207 213 198 205 136 226 224 267 303 246 199 233 230 228 223 218 216 225
34 44 60 159 192 203 211 213 218 218 219 199 194 202 201 201 203 210 208 213 215 211 212 212 209 216 218 227 217 202 195 191 217 204 237 247 233 205 226 220 228 221 225